Regional Weather Roundup
Issued by NWS New Orleans/Baton Rouge, LA

Home | Current Version | Previous Version | Graphics & Text | Print | Product List | Glossary On
Versions: 1 2 3 4 5 6 7 8 9 10 11 12 13 14 15 16 17 18 19 20 21 22 23 24 25 26 27 28 29 30 31 32 33 34 35 36 37 38 39 40 41 42 43 44 45 46 47 48 49 50
680
ASUS44 KLIX 220201
RWRLIX
NEW ORLEANS REGIONAL WEATHER ROUNDUP
NATIONAL WEATHER SERVICE NEW ORLEANS LA
900 PM CDT MON JUL 21 2014

NOTE: "FAIR" INDICATES FEW OR NO CLOUDS BELOW 12,000 FEET WITH NO
      SIGNIFICANT WEATHER AND/OR OBSTRUCTIONS TO VISIBILITY.
      SKY/WX - SKY CONDITION AND SIGNIFICANT WEATHER.
      TMP - AIR TEMPERATURE.     DP    - DEWPOINT TEMPERATURE.
      RH  - RELATIVE HUMIDITY.   PRES  - PRESSURE.
      HI  - HEAT INDEX.          WCI   - WIND CHILL INDEX.

*  THESE STATIONS ARE NOT NWS OR FAA STATIONS AND ARE NOT UNDER
   NWS QUALITY CONTROL.

LAZ038-040-048-061>063-065>067-069-220300-
SOUTHEAST LOUISIANA

CITY           SKY/WX    TMP DP  RH WIND       PRES   REMARKS
N.O. AUDUBON     N/A     84  70  63 MISG        N/A
N.O. INTL ARPT PTCLDY    83  71  67 N3        29.99R
N.O. LAKEFRONT CLEAR     85  69  58 N7        29.99S
N.O. DOWNTOWN*   N/A     88  66  48 N3        30.00R
SLIDELL        CLEAR     79  74  84 CALM      29.99R
BATON ROUGE    CLEAR     79  72  79 CALM      30.00R
BOOTHVILLE     CLEAR     80  77  90 S5        30.00S
BELLE CHASSE   PTCLDY    77  72  84 CALM      29.99R
BOGALUSA*        N/A     78  74  86 CALM      30.01S
GALLIANO*      NOT AVBL
NEW ROADS*       N/A     78  73  87 N3        30.01R
GONZALES*        N/A     78  77  98 CALM      29.99R
HAMMOND*       CLEAR     77  72  83 CALM      30.01S
HOUMA*         MOCLDY    81  74  80 SE3       30.00R
PORT FOURCHON* CLEAR     84  77  79 CALM      30.02R

$$

MSZ070-080>082-220300-
SOUTHERN MISSISSIPPI

CITY           SKY/WX    TMP DP  RH WIND       PRES   REMARKS
MCCOMB         CLEAR     77  71  82 CALM      30.01S
GULFPORT       CLEAR     82  72  71 CALM      29.98R
BILOXI         CLEAR     82  71  68 VRB1      29.98S
PASCAGOULA     MOCLDY    78  76  93 CALM      29.97S
STENNIS ARPT*  CLEAR    N/A N/A N/A CALM      29.99S

$$

COASTAL OBSERVATIONS
LAKE AND NEARSHORE STATIONS

STATION/POSITION TIME  TEMP    WIND        PRES    WAVE
                       AIR SEA DIR/SP/G            HT/PER
                 (UTC) (F)     (DEG/KT/KT) (MB)    (FT/S)
PASCAGOULA       0120   84     260/  6/  8 1014.5
WAVELAND YACHT   0120   85     290/  2/  2 1014.8
GRAND ISLE       0120   83 85  150/  4/  6 1016.3
SOUTHWEST PASS   0120   83 85  150/  5/  7 1016.2
NEW CANAL        0120   86 85   CALM  /  1 1015.9
SHELL BEACH      0120   85 82   90/  2/  2 1015.6

OFFSHORE STATIONS

STATION/POSITION TIME  TEMP    WIND        PRES    WAVE
                       AIR SEA DIR/SP/G            HT/PER
                 (UTC) (F)     (DEG/KT/KT) (MB)    (FT/S)
64 S DAUPHIN ISL 0122   82 84  210/  8/ 10 1015.7

$$




USA.gov is the U.S. government's official web portal to all federal, state and local government web resources and services.